FW9412 Weather Reports


Display with metric or nautical units.
time (UTC)temp
F
wind
direction
speed
MPH
gust
MPH
rain 1hr
in
rain 24hr
in
rain mn
in
humidity
%
barometer
mb
20260902065638 68 156 0.0 0.0 0.00 0.00 0.00 99 1016.3
20260902065134 68 156 0.0 0.0 0.00 0.00 0.00 99 1016.2
20260902064629 68 153 0.0 0.0 0.00 0.00 0.00 99 1016.2
20260902064125 68 160 0.0 0.0 0.00 0.00 0.00 98 1016.4
20260902063620 68 151 0.0 0.0 0.00 0.00 0.00 99 1016.3
20260902063114 68 162 0.0 0.0 0.00 0.00 0.00 99 1016.5
20260902062613 68 162 0.0 0.0 0.00 0.00 0.00 99 1016.7
20260902062109 68 161 0.0 0.0 0.00 0.00 0.00 99 1016.4
20260902061608 68 151 0.0 0.0 0.00 0.00 0.00 99 1016.7
20260902061104 68 157 0.0 0.0 0.00 0.00 0.00 99 1016.7
20260902060601 68 151 0.0 0.0 0.00 0.00 0.00 99 1016.5
20260902060057 68 153 0.0 0.0 0.00 0.00 0.00 98 1016.7
20260902055552 68 155 0.0 0.0 0.00 0.00 0.00 99 1016.5
20260902055048 69 151 0.0 0.0 0.00 0.00 0.00 99 1016.5
20260902054543 69 151 0.0 0.0 0.00 0.00 0.00 99 1016.6
20260902054038 69 158 0.0 0.0 0.00 0.00 0.00 99 1016.6
20260902053533 69 154 0.0 0.0 0.00 0.00 0.00 99 1016.7
20260902053033 69 161 0.0 0.0 0.00 0.00 0.00 99 1016.5
20260902052527 69 165 0.0 0.0 0.00 0.00 0.00 99 1016.6
20260902052023 69 161 0.0 0.0 0.00 0.00 0.00 99 1016.5
20260902051523 69 158 0.0 0.0 0.00 0.00 0.00 99 1016.5
20260902051021 69 158 0.0 0.0 0.00 0.00 0.00 99 1016.2
20260902050517 69 164 0.0 0.0 0.00 0.00 0.00 99 1016.2
20260902050012 69 156 0.0 0.0 0.00 0.00 0.00 99 1016.3
20260902045507 69 158 0.0 0.0 0.00 0.00 0.00 99 1016.3
20260902045004 69 154 0.0 0.0 0.00 0.00 0.00 99 1016.4
20260902044458 69 154 0.0 0.0 0.00 0.00 0.00 99 1016.4
20260902043954 69 158 0.0 0.0 0.00 0.00 0.00 99 1016.5
20260902043448 69 157 0.0 0.0 0.00 0.00 0.00 99 1016.4
20260902042943 69 157 0.0 0.0 0.00 0.00 0.00 99 1016.6
20260902042443 69 158 0.0 0.0 0.00 0.00 0.00 99 1016.3
20260902041938 69 158 0.0 0.0 0.00 0.00 0.00 99 1016.3
20260902041433 69 160 0.0 0.0 0.00 0.00 0.00 99 1016.3
20260902040932 69 162 0.0 0.0 0.00 0.00 0.00 99 1016.3
20260902040427 69 157 0.0 0.0 0.00 0.00 0.00 98 1016.3
20260902035926 69 156 0.0 0.0 0.00 0.03 0.03 99 1016.2
20260902035421 69 161 0.0 0.0 0.00 0.03 0.03 98 1016.1
20260902034921 69 154 0.0 0.0 0.00 0.03 0.03 98 1016.2
20260902034415 70 155 0.0 0.0 0.00 0.03 0.03 98 1016.2
20260902033914 70 160 0.0 0.0 0.00 0.03 0.03 98 1016.4
20260902033409 70 155 0.0 0.0 0.00 0.03 0.03 98 1016.2
20260902032908 70 150 0.0 0.0 0.00 0.03 0.03 98 1016.5
20260902032402 69 150 0.0 0.0 0.00 0.03 0.03 98 1016.5
20260902031857 69 149 0.0 0.0 0.00 0.03 0.03 98 1016.3
20260902031353 69 150 0.0 0.0 0.00 0.03 0.03 98 1016.2
20260902030849 69 150 0.0 0.0 0.00 0.03 0.03 98 1016.5
20260902030343 69 150 0.0 0.0 0.00 0.03 0.03 98 1016.2
20260902025842 70 150 0.0 0.0 0.00 0.03 0.03 98 1016.2
20260902025338 70 149 0.0 0.0 0.00 0.03 0.03 98 1016.3
20260902024832 70 149 0.0 0.0 0.00 0.03 0.03 98 1016.3
20260902024328 70 149 0.0 0.0 0.00 0.03 0.03 98 1016.3
20260902023823 70 150 0.0 0.0 0.00 0.03 0.03 98 1016.6
20260902023319 70 150 0.0 0.0 0.00 0.03 0.03 98 1016.3
20260902022817 70 150 0.0 0.0 0.00 0.03 0.03 98 1016.4
20260902022313 70 150 0.0 0.0 0.00 0.03 0.03 98 1016.6
20260902021809 70 150 0.0 0.0 0.00 0.03 0.03 98 1016.2
20260902021303 70 150 0.0 0.0 0.00 0.03 0.03 98 1016.2
20260902020759 70 150 0.0 0.0 0.00 0.03 0.03 98 1016.4
20260902020255 70 150 0.0 0.0 0.00 0.03 0.03 98 1016.6
20260902015750 70 150 0.0 0.0 0.00 0.03 0.03 97 1016.3
20260902015247 70 150 0.0 0.0 0.00 0.03 0.03 97 1016.5
20260902014742 70 150 0.0 0.0 0.00 0.03 0.03 97 1016.5
20260902014238 71 150 0.0 0.0 0.00 0.03 0.03 97 1016.4
20260902013736 70 150 0.0 0.0 0.00 0.03 0.03 97 1016.4
20260902013232 71 150 0.0 0.0 0.00 0.03 0.03 97 1016.2
20260902012727 71 150 0.0 0.0 0.00 0.03 0.03 97 1016.2
20260902012223 71 150 0.0 0.0 0.00 0.03 0.03 97 1016.3
20260902011719 71 150 0.0 0.0 0.00 0.03 0.03 97 1016.1
20260902011218 71 150 0.0 0.0 0.00 0.03 0.03 97 1015.9
20260902010718 71 150 0.0 0.0 0.00 0.03 0.03 97 1016.2
20260902010214 71 150 0.0 0.0 0.00 0.03 0.03 97 1015.8
20260902005712 71 150 0.0 0.0 0.00 0.03 0.03 97 1015.9
20260902005208 71 150 0.0 0.0 0.00 0.03 0.03 97 1015.8
20260902004707 71 150 0.0 0.0 0.00 0.03 0.03 97 1015.6
20260902004203 71 150 0.0 0.0 0.00 0.03 0.03 97 1015.7
20260902003658 71 150 0.0 0.0 0.00 0.03 0.03 96 1015.4
20260902003153 71 150 0.0 0.0 0.00 0.03 0.03 96 1015.3
20260902002648 71 150 0.0 0.0 0.00 0.03 0.03 96 1015.1
20260902002143 72 150 0.0 0.0 0.00 0.03 0.03 96 1015.2
20260902001638 72 150 0.0 0.0 0.00 0.03 0.03 96 1015.0
20260902001138 72 150 0.0 0.0 0.00 0.03 0.03 96 1015.0
20260902000633 72 150 0.0 0.0 0.00 0.03 0.03 96 1014.9
20260902000128 72 150 0.0 0.0 0.00 0.03 0.03 95 1014.7
20260901235628 72 150 0.0 0.0 0.00 0.03 0.03 95 1014.8
20260901235123 73 150 0.0 0.0 0.00 0.03 0.03 95 1014.9
20260901234622 73 150 0.0 0.0 0.00 0.03 0.03 95 1014.8
20260901234118 73 150 0.0 0.0 0.00 0.03 0.03 94 1014.9
20260901233613 73 150 0.0 0.0 0.00 0.03 0.03 94 1014.9
20260901233109 73 150 0.0 0.0 0.00 0.03 0.03 94 1015.1
20260901232603 73 150 0.0 0.0 0.00 0.03 0.03 93 1015.1
20260901232103 73 149 0.0 0.0 0.00 0.03 0.03 93 1015.1
20260901231601 74 142 0.0 0.0 0.00 0.03 0.03 92 1015.1
20260901231056 74 159 0.0 0.0 0.00 0.03 0.03 91 1015.2
20260901230552 74 159 0.0 0.0 0.00 0.03 0.03 91 1015.0
20260901230052 75 159 0.0 0.0 0.00 0.03 0.03 90 1015.2
20260901225547 75 159 0.0 0.0 0.00 0.03 0.03 89 1015.2
20260901225046 75 159 0.0 0.0 0.00 0.03 0.03 89 1015.1
20260901224542 75 161 0.0 0.0 0.00 0.03 0.03 88 1015.3
20260901224038 75 157 0.0 0.0 0.00 0.03 0.03 88 1015.2
20260901223534 76 159 0.0 0.0 0.00 0.03 0.03 88 1015.3
20260901223029 76 163 0.0 0.0 0.00 0.03 0.03 87 1015.3
20260901222525 76 164 0.0 0.0 0.00 0.03 0.03 87 1015.1
20260901222020 76 160 0.0 0.0 0.00 0.03 0.03 87 1015.3
20260901221517 77 159 0.0 0.0 0.00 0.03 0.03 86 1015.2
20260901221011 77 178 0.0 0.0 0.00 0.03 0.03 86 1015.2
20260901220506 77 180 0.0 0.0 0.00 0.03 0.03 86 1015.0
20260901220004 77 171 0.0 0.0 0.00 0.03 0.03 86 1015.2
20260901215503 77 162 0.0 0.0 0.00 0.03 0.03 87 1014.8
20260901215003 77 163 0.0 0.0 0.00 0.03 0.03 87 1015.0
20260901214501 77 170 0.0 0.0 0.00 0.03 0.03 88 1014.9
20260901213955 77 160 0.0 0.0 0.00 0.03 0.03 87 1014.9
20260901213450 77 176 0.0 1.0 0.00 0.03 0.03 87 1014.9
20260901212949 77 154 0.0 0.0 0.00 0.03 0.03 87 1015.0
20260901212445 77 164 0.0 0.0 0.00 0.03 0.03 88 1014.8
20260901211942 77 163 0.0 0.0 0.00 0.03 0.03 87 1014.9
20260901211437 77 146 0.0 0.0 0.00 0.03 0.03 88 1014.9
20260901210933 77 163 0.0 0.0 0.00 0.03 0.03 88 1014.7
20260901210428 77 160 0.0 0.0 0.00 0.03 0.03 88 1015.0
20260901205924 77 158 0.0 0.0 0.00 0.03 0.03 89 1015.1
20260901205419 77 157 0.0 0.0 0.00 0.03 0.03 89 1015.2
20260901204914 77 144 0.0 0.0 0.00 0.03 0.03 90 1015.3
20260901204410 77 150 0.0 0.0 0.00 0.03 0.03 90 1015.2
20260901203910 76 155 0.0 0.0 0.00 0.03 0.03 90 1015.1
20260901203404 77 145 0.0 0.0 0.00 0.03 0.03 90 1015.2
20260901202859 77 159 0.0 0.0 0.00 0.03 0.03 90 1014.9
20260901202354 76 164 0.0 0.0 0.00 0.03 0.03 90 1015.2
20260901201851 76 157 0.0 0.0 0.00 0.03 0.03 90 1015.2
20260901201350 76 148 0.0 0.0 0.00 0.03 0.03 91 1015.2
20260901200844 76 150 0.0 0.0 0.00 0.03 0.03 91 1015.1
20260901200340 76 151 0.0 0.0 0.00 0.03 0.03 91 1015.1
20260901195838 76 150 0.0 0.0 0.00 0.03 0.03 91 1014.8
20260901195337 76 140 0.0 0.0 0.00 0.03 0.03 91 1014.9
20260901194832 76 145 0.0 0.0 0.00 0.03 0.03 91 1015.1
20260901194327 76 153 0.0 0.0 0.00 0.03 0.03 90 1014.9
20260901193824 76 153 0.0 0.0 0.00 0.03 0.03 91 1015.0
20260901193322 76 148 0.0 0.0 0.00 0.03 0.03 91 1014.9
20260901192816 75 151 0.0 0.0 0.00 0.03 0.03 92 1015.0
20260901192312 75 147 0.0 0.0 0.00 0.03 0.03 92 1014.9
20260901191808 75 153 0.0 0.0 0.00 0.03 0.03 92 1014.9
20260901191304 75 142 0.0 0.0 0.00 0.03 0.03 92 1014.7
20260901190759 75 152 0.0 0.0 0.00 0.03 0.03 92 1015.0
20260901190254 76 170 0.0 0.0 0.00 0.03 0.03 92 1015.1
20260901185752 76 132 0.0 0.0 0.00 0.03 0.03 92 1014.8
20260901185251 76 157 0.0 0.0 0.00 0.03 0.03 92 1015.0
20260901184747 76 151 0.0 0.0 0.00 0.03 0.03 92 1015.0
20260901184241 76 142 0.0 0.0 0.00 0.03 0.03 92 1014.9
20260901183738 76 144 0.0 0.0 0.00 0.03 0.03 91 1014.8
20260901183237 76 147 0.0 0.0 0.00 0.03 0.03 90 1014.8
20260901182733 76 147 0.0 0.0 0.00 0.03 0.03 91 1014.8
20260901182232 76 152 0.0 0.0 0.00 0.03 0.03 91 1014.8
20260901181727 76 149 0.0 0.0 0.00 0.03 0.03 90 1014.7
20260901181222 75 163 0.0 0.0 0.00 0.03 0.03 89 1014.5
20260901180721 75 160 0.0 0.0 0.00 0.03 0.03 90 1014.4
20260901180220 76 150 0.0 0.0 0.00 0.03 0.03 91 1014.3
20260901175719 76 149 0.0 0.0 0.00 0.03 0.03 90 1014.2
20260901175214 77 153 0.0 0.0 0.00 0.03 0.03 90 1014.3
20260901174709 77 153 0.0 0.0 0.00 0.03 0.03 87 1014.3
20260901174205 77 162 0.0 0.0 0.00 0.03 0.03 85 1014.3
20260901173701 77 145 0.0 0.0 0.00 0.03 0.03 86 1014.3
20260901173156 77 159 0.0 0.0 0.00 0.03 0.03 86 1014.2
20260901172651 77 163 0.0 0.0 0.00 0.03 0.03 85 1014.3
20260901172144 77 162 0.0 0.0 0.00 0.03 0.03 86 1014.3
20260901171644 77 159 0.0 0.0 0.00 0.03 0.03 86 1014.2
20260901171143 77 171 0.0 0.0 0.00 0.03 0.03 86 1014.1
20260901170643 76 165 0.0 0.0 0.00 0.03 0.03 86 1014.3
20260901170137 76 167 0.0 0.0 0.00 0.03 0.03 86 1014.2
20260901165636 76 176 0.0 0.0 0.00 0.03 0.03 85 1014.3
20260901165132 77 177 0.0 0.0 0.00 0.03 0.03 86 1014.1
20260901164628 77 174 0.0 0.0 0.00 0.03 0.03 85 1014.3
20260901164122 77 168 0.0 0.0 0.00 0.03 0.03 86 1014.4
20260901163618 77 175 0.0 0.0 0.00 0.03 0.03 86 1014.2
20260901163117 76 172 0.0 0.0 0.00 0.03 0.03 86 1014.2
20260901162612 76 167 0.0 0.0 0.00 0.03 0.03 86 1014.2
20260901162111 77 167 0.0 0.0 0.00 0.03 0.03 85 1014.2
20260901161611 77 163 0.0 0.0 0.00 0.03 0.03 85 1014.1
20260901161110 77 157 0.0 0.0 0.00 0.03 0.03 87 1013.7
20260901160607 76 186 0.0 0.0 0.00 0.03 0.03 87 1014.1
20260901155601 75 188 1.0 1.0 0.00 0.03 0.03 88 1014.1
20260901155057 75 193 1.0 1.0 0.00 0.03 0.03 90 1014.3
20260901154556 75 201 2.0 2.0 0.00 0.03 0.03 91 1013.9
20260901154051 74 192 3.0 3.0 0.00 0.03 0.03 93 1014.3
20260901153546 73 172 1.0 1.0 0.00 0.03 0.03 96 1014.2
20260901153046 72 199 1.0 2.0 0.00 0.03 0.03 98 1014.3
20260901152541 72 166 0.0 0.0 0.00 0.03 0.03 99 1013.9
20260901152039 72 169 0.0 0.0 0.00 0.03 0.03 99 1014.1
20260901151535 72 170 0.0 0.0 0.00 0.03 0.03 99 1013.8
20260901151035 72 164 0.0 0.0 0.00 0.03 0.03 99 1014.1
20260901150533 71 155 0.0 0.0 0.00 0.03 0.03 99 1014.1
20260901150031 71 150 0.0 0.0 0.00 0.03 0.03 99 1014.4
20260901145525 71 154 0.0 0.0 0.00 0.03 0.03 99 1014.2
20260901145024 70 153 0.0 0.0 0.00 0.03 0.03 99 1014.4
20260901144521 70 153 0.0 0.0 0.00 0.03 0.03 99 1014.5
20260901144015 70 153 0.0 0.0 0.00 0.03 0.03 99 1014.3
20260901143511 70 153 0.0 0.0 0.00 0.03 0.03 99 1014.4
20260901143008 70 157 0.0 0.0 0.00 0.03 0.03 99 1014.3
20260901142502 70 154 0.0 0.0 0.00 0.03 0.03 99 1014.2
20260901141957 70 157 0.0 0.0 0.00 0.03 0.03 99 1014.4
20260901141456 70 157 0.0 0.0 0.00 0.03 0.03 99 1014.4
20260901140952 70 157 0.0 0.0 0.00 0.03 0.03 99 1014.4
20260901140449 70 159 0.0 0.0 0.00 0.03 0.03 99 1014.3
20260901135944 70 158 0.0 0.0 0.00 0.03 0.03 99 1014.2
20260901135439 70 163 0.0 0.0 0.00 0.03 0.03 99 1014.2
20260901134935 69 158 0.0 0.0 0.00 0.03 0.03 99 1013.9
20260901134430 69 171 0.0 0.0 0.00 0.03 0.03 99 1013.9
20260901133930 69 163 0.0 0.0 0.00 0.03 0.03 99 1014.1
20260901133429 69 164 0.0 0.0 0.00 0.03 0.03 99 1013.9
20260901132928 69 168 0.0 0.0 0.00 0.03 0.03 99 1014.1
20260901132423 69 183 0.0 0.0 0.00 0.03 0.03 99 1014.1
20260901131922 69 169 0.0 0.0 0.00 0.03 0.03 99 1013.9
20260901131422 69 168 0.0 0.0 0.00 0.03 0.03 99 1014.1
20260901130918 69 166 0.0 0.0 0.00 0.03 0.03 99 1014.1
20260901130417 68 164 0.0 0.0 0.00 0.03 0.03 99 1013.9
20260901125915 68 159 0.0 0.0 0.00 0.03 0.03 99 1014.3
20260901125415 68 156 0.0 0.0 0.00 0.03 0.03 99 1014.2
20260901124909 68 154 0.0 0.0 0.00 0.03 0.03 99 1014.7
20260901124404 68 152 0.0 0.0 0.00 0.03 0.03 99 1014.3
20260901123900 68 154 0.0 0.0 0.00 0.03 0.03 99 1014.6
20260901123354 68 152 0.0 0.0 0.00 0.03 0.03 99 1014.6
20260901122852 68 149 0.0 0.0 0.00 0.03 0.03 99 1014.4
20260901122347 68 150 0.0 0.0 0.00 0.03 0.03 99 1014.5
20260901121846 68 154 0.0 0.0 0.00 0.03 0.03 99 1014.6
20260901121341 68 150 0.0 0.0 0.00 0.03 0.03 99 1014.7
20260901120837 68 150 0.0 0.0 0.00 0.03 0.03 99 1014.4
20260901120331 68 150 0.0 0.0 0.00 0.03 0.03 99 1014.5
20260901115827 68 151 0.0 0.0 0.00 0.03 0.03 99 1014.5
20260901115321 68 151 0.0 0.0 0.00 0.03 0.03 99 1014.6
20260901114820 68 151 0.0 0.0 0.00 0.03 0.03 99 1014.6
20260901114314 67 150 0.0 0.0 0.00 0.03 0.03 99 1014.2
20260901113813 67 150 0.0 0.0 0.00 0.03 0.03 99 1014.6
20260901113307 67 149 0.0 0.0 0.00 0.03 0.03 99 1014.5
20260901112802 67 150 0.0 0.0 0.00 0.03 0.03 99 1014.6
20260901112305 67 150 0.0 0.0 0.00 0.03 0.03 99 1014.6
20260901111756 67 151 0.0 0.0 0.00 0.03 0.03 99 1014.6
20260901111255 67 147 0.0 0.0 0.00 0.03 0.03 99 1014.6
20260901110754 67 147 0.0 0.0 0.00 0.03 0.03 99 1014.6
20260901110250 67 146 0.0 0.0 0.00 0.03 0.03 99 1014.7
20260901105746 67 147 0.0 0.0 0.00 0.03 0.03 99 1014.5
20260901105246 67 152 0.0 0.0 0.00 0.03 0.03 99 1014.8
20260901104742 67 155 0.0 0.0 0.00 0.03 0.03 99 1014.9
20260901104237 67 150 0.0 0.0 0.00 0.03 0.03 99 1014.4
20260901103737 67 153 0.0 0.0 0.00 0.03 0.03 99 1014.3
20260901103232 67 152 0.0 0.0 0.00 0.03 0.03 99 1014.3
20260901102727 67 153 0.0 0.0 0.00 0.03 0.03 99 1014.3
20260901102226 67 151 0.0 0.0 0.00 0.03 0.03 99 1014.2
20260901101723 67 152 0.0 0.0 0.00 0.03 0.03 99 1014.3
20260901101222 67 153 0.0 0.0 0.00 0.03 0.03 99 1014.3
20260901100716 67 153 0.0 0.0 0.00 0.03 0.03 99 1014.2
20260901100212 67 151 0.0 0.0 0.00 0.03 0.03 99 1014.4
20260901095710 67 151 0.0 0.0 0.00 0.03 0.03 99 1014.1
20260901095208 67 151 0.0 0.0 0.00 0.03 0.03 99 1014.5
20260901094707 67 150 0.0 0.0 0.00 0.03 0.03 99 1014.8
20260901094202 67 152 0.0 0.0 0.00 0.03 0.03 99 1014.9
20260901093657 67 153 0.0 0.0 0.05 0.03 0.03 99 1014.7
20260901093156 67 147 0.0 0.0 0.05 0.03 0.03 99 1014.8
20260901092652 67 153 0.0 0.0 0.07 0.02 0.02 99 1015.0
20260901092148 67 149 0.0 0.0 0.07 0.02 0.02 99 1014.8
20260901091643 67 153 0.0 0.0 0.00 0.01 0.01 99 1014.7
20260901091138 67 158 0.0 0.0 0.00 0.01 0.01 99 1014.8
20260901090633 67 153 0.0 0.0 0.00 0.01 0.01 99 1014.8
20260901090128 67 153 0.0 0.0 0.00 0.01 0.01 99 1014.3
20260901085624 67 151 0.0 0.0 0.00 0.01 0.01 99 1014.4
20260901085120 67 153 0.0 0.0 0.00 0.01 0.01 99 1014.4
20260901084616 67 150 0.0 0.0 0.00 0.01 0.01 99 1014.6
20260901084112 67 151 0.0 0.0 0.00 0.01 0.01 99 1014.4
20260901083612 67 151 0.0 0.0 0.00 0.01 0.01 99 1014.4
20260901083110 67 153 0.0 0.0 0.00 0.01 0.01 99 1014.8
20260901082605 67 154 0.0 0.0 0.00 0.01 0.01 99 1014.5
20260901082101 67 152 0.0 0.0 0.00 0.01 0.01 99 1014.5
20260901081555 67 153 0.0 0.0 0.00 0.01 0.01 99 1014.9
20260901081050 68 153 0.0 0.0 0.00 0.01 0.01 99 1014.8
20260901080550 68 154 0.0 0.0 0.00 0.01 0.01 99 1015.0
20260901080049 68 153 0.0 0.0 0.00 0.01 0.01 99 1015.0
20260901075545 68 157 0.0 0.0 0.00 0.01 0.01 99 1014.7
20260901075044 68 159 0.0 0.0 0.00 0.01 0.01 99 1015.1
20260901074543 68 171 0.0 0.0 0.00 0.01 0.01 99 1015.2
20260901074039 68 161 0.0 0.0 0.00 0.01 0.01 99 1015.1
20260901073536 68 164 0.0 0.0 0.00 0.01 0.01 99 1015.4
20260901073031 68 157 0.0 0.0 0.00 0.01 0.01 99 1015.3
20260901072531 68 166 0.0 0.0 0.00 0.01 0.01 99 1015.6
20260901072026 68 168 0.0 0.0 0.00 0.01 0.01 99 1015.4
20260901071526 68 169 0.0 0.0 0.00 0.01 0.01 99 1015.6
20260901071024 68 165 0.0 0.0 0.05 0.01 0.01 99 1015.3
20260901070520 68 165 0.0 0.0 0.05 0.01 0.01 99 1015.5
20260901070015 68 167 0.0 0.0 0.00 0.00 0.00 99 1015.6